| time (UTC) | temp C | wind direction | speed KPH | gust KPH | rain 1hr cm | rain 24hr cm | rain mn cm | humidity % | barometer mb |
| 20260903193317 | 16 | 210 | 4.8 | 9.7 | 0.08 | 0.23 | 0.20 | 90 | 1009.9 |
| 20260903192817 | 16 | 230 | 4.8 | 11.3 | 0.08 | 0.23 | 0.20 | 91 | 1009.9 |
| 20260903192317 | 16 | 217 | 4.8 | 11.3 | 0.08 | 0.23 | 0.20 | 91 | 1010.0 |
| 20260903191319 | 16 | 198 | 4.8 | 14.5 | 0.08 | 0.23 | 0.18 | 91 | 1010.1 |
| 20260903190816 | 16 | 187 | 8.0 | 12.9 | 0.08 | 0.23 | 0.18 | 91 | 1010.1 |
| 20260903190317 | 16 | 209 | 3.2 | 4.8 | 0.08 | 0.23 | 0.18 | 92 | 1010.1 |
| 20260903185817 | 16 | 203 | 3.2 | 8.0 | 0.05 | 0.20 | 0.15 | 91 | 1010.2 |
| 20260903185317 | 16 | 214 | 3.2 | 8.0 | 0.05 | 0.20 | 0.15 | 91 | 1010.4 |
| 20260903184817 | 16 | 215 | 4.8 | 12.9 | 0.05 | 0.20 | 0.15 | 91 | 1010.5 |
| 20260903183317 | 16 | 231 | 3.2 | 4.8 | 0.05 | 0.15 | 0.13 | 91 | 1010.6 |
| 20260903182317 | 16 | 268 | 3.2 | 8.0 | 0.05 | 0.15 | 0.13 | 90 | 1010.6 |
| 20260903181817 | 17 | 227 | 3.2 | 9.7 | 0.05 | 0.15 | 0.13 | 90 | 1010.7 |
| 20260903181317 | 17 | 246 | 4.8 | 12.9 | 0.03 | 0.15 | 0.10 | 90 | 1010.7 |
| 20260903180818 | 17 | 227 | 4.8 | 9.7 | 0.03 | 0.15 | 0.10 | 89 | 1010.9 |
| 20260903180317 | 17 | 235 | 6.4 | 11.3 | 0.03 | 0.15 | 0.10 | 89 | 1010.8 |
| 20260903175817 | 17 | 226 | 4.8 | 11.3 | 0.03 | 0.15 | 0.10 | 89 | 1010.8 |
| 20260903175316 | 17 | 238 | 8.0 | 16.1 | 0.03 | 0.15 | 0.10 | 88 | 1010.8 |
| 20260903174818 | 17 | 245 | 9.7 | 19.3 | 0.03 | 0.15 | 0.10 | 88 | 1011.0 |
| 20260903174317 | 17 | 226 | 11.3 | 22.5 | 0.03 | 0.15 | 0.10 | 88 | 1011.2 |
| 20260903173817 | 17 | 232 | 9.7 | 19.3 | 0.00 | 0.13 | 0.08 | 88 | 1011.3 |
| 20260903173317 | 17 | 252 | 4.8 | 14.5 | 0.00 | 0.13 | 0.08 | 88 | 1011.3 |
| 20260903172817 | 17 | 240 | 4.8 | 11.3 | 0.00 | 0.13 | 0.08 | 88 | 1011.3 |
| 20260903172317 | 17 | 234 | 8.0 | 14.5 | 0.00 | 0.13 | 0.08 | 88 | 1011.3 |
| 20260903171817 | 17 | 245 | 6.4 | 14.5 | 0.00 | 0.13 | 0.08 | 88 | 1011.2 |
| 20260903171316 | 17 | 254 | 3.2 | 11.3 | 0.00 | 0.13 | 0.08 | 87 | 1011.1 |
| 20260903170816 | 17 | 240 | 6.4 | 11.3 | 0.00 | 0.13 | 0.08 | 87 | 1011.0 |
| 20260903170317 | 17 | 256 | 6.4 | 12.9 | 0.00 | 0.13 | 0.08 | 87 | 1011.1 |
| 20260903165817 | 17 | 250 | 4.8 | 11.3 | 0.00 | 0.13 | 0.08 | 86 | 1011.0 |
| 20260903165318 | 17 | 242 | 4.8 | 9.7 | 0.00 | 0.13 | 0.08 | 87 | 1010.9 |
| 20260903164817 | 17 | 261 | 4.8 | 11.3 | 0.00 | 0.13 | 0.08 | 86 | 1010.9 |
| 20260903164317 | 17 | 237 | 8.0 | 12.9 | 0.00 | 0.13 | 0.08 | 86 | 1011.1 |
| 20260903163817 | 17 | 229 | 8.0 | 16.1 | 0.00 | 0.13 | 0.08 | 86 | 1011.2 |
| 20260903163316 | 17 | 232 | 8.0 | 14.5 | 0.00 | 0.13 | 0.08 | 85 | 1011.4 |
| 20260903162818 | 17 | 245 | 9.7 | 19.3 | 0.00 | 0.13 | 0.08 | 85 | 1011.6 |
| 20260903162317 | 17 | 236 | 9.7 | 19.3 | 0.00 | 0.13 | 0.08 | 85 | 1011.6 |
| 20260903161817 | 17 | 233 | 6.4 | 16.1 | 0.00 | 0.13 | 0.08 | 85 | 1011.5 |
| 20260903161317 | 17 | 244 | 9.7 | 19.3 | 0.00 | 0.13 | 0.08 | 85 | 1011.5 |
| 20260903160318 | 18 | 235 | 8.0 | 19.3 | 0.00 | 0.13 | 0.08 | 82 | 1011.8 |
| 20260903155817 | 18 | 243 | 8.0 | 16.1 | 0.00 | 0.13 | 0.08 | 81 | 1011.9 |
| 20260903155316 | 18 | 270 | 11.3 | 24.1 | 0.00 | 0.13 | 0.08 | 80 | 1011.9 |
| 20260903154817 | 18 | 258 | 8.0 | 19.3 | 0.00 | 0.13 | 0.08 | 79 | 1011.9 |
| 20260903154317 | 18 | 239 | 8.0 | 14.5 | 0.00 | 0.13 | 0.08 | 79 | 1011.7 |
| 20260903153817 | 18 | 247 | 8.0 | 12.9 | 0.00 | 0.13 | 0.08 | 79 | 1011.7 |
| 20260903153317 | 18 | 253 | 8.0 | 14.5 | 0.00 | 0.13 | 0.08 | 78 | 1011.9 |
| 20260903152816 | 18 | 255 | 8.0 | 12.9 | 0.00 | 0.13 | 0.08 | 78 | 1012.0 |
| 20260903152317 | 18 | 249 | 9.7 | 19.3 | 0.00 | 0.13 | 0.08 | 77 | 1011.9 |
| 20260903151817 | 18 | 240 | 11.3 | 20.9 | 0.00 | 0.13 | 0.08 | 77 | 1011.8 |
| 20260903151318 | 18 | 253 | 9.7 | 20.9 | 0.00 | 0.13 | 0.08 | 77 | 1011.9 |
| 20260903150816 | 18 | 247 | 8.0 | 20.9 | 0.00 | 0.13 | 0.08 | 77 | 1012.2 |
| 20260903150317 | 18 | 252 | 8.0 | 19.3 | 0.00 | 0.13 | 0.08 | 76 | 1012.2 |
| 20260903145817 | 19 | 234 | 11.3 | 25.7 | 0.00 | 0.13 | 0.08 | 75 | 1012.2 |
| 20260903145316 | 19 | 232 | 9.7 | 16.1 | 0.00 | 0.13 | 0.08 | 75 | 1012.1 |
| 20260903144316 | 19 | 247 | 11.3 | 24.1 | 0.00 | 0.13 | 0.08 | 75 | 1012.1 |
| 20260903143818 | 19 | 215 | 9.7 | 20.9 | 0.00 | 0.13 | 0.08 | 75 | 1012.0 |
| 20260903143317 | 19 | 211 | 11.3 | 22.5 | 0.00 | 0.13 | 0.08 | 76 | 1011.9 |
| 20260903142817 | 19 | 210 | 9.7 | 22.5 | 0.00 | 0.13 | 0.08 | 75 | 1011.9 |
| 20260903142316 | 19 | 248 | 9.7 | 24.1 | 0.00 | 0.13 | 0.08 | 75 | 1012.0 |
| 20260903141317 | 19 | 229 | 8.0 | 16.1 | 0.00 | 0.13 | 0.08 | 75 | 1011.9 |
| 20260903140817 | 19 | 204 | 9.7 | 20.9 | 0.00 | 0.13 | 0.08 | 76 | 1011.9 |
| 20260903140318 | 19 | 208 | 11.3 | 20.9 | 0.00 | 0.15 | 0.08 | 75 | 1012.0 |
| 20260903135817 | 18 | 217 | 9.7 | 16.1 | 0.00 | 0.15 | 0.08 | 76 | 1012.1 |
| 20260903135316 | 18 | 215 | 11.3 | 27.4 | 0.00 | 0.15 | 0.08 | 76 | 1012.0 |
| 20260903134817 | 18 | 239 | 9.7 | 19.3 | 0.00 | 0.15 | 0.08 | 76 | 1012.0 |
| 20260903134317 | 18 | 235 | 12.9 | 25.7 | 0.00 | 0.15 | 0.08 | 77 | 1012.1 |
| 20260903133816 | 18 | 215 | 12.9 | 20.9 | 0.00 | 0.15 | 0.08 | 77 | 1012.1 |
| 20260903133316 | 18 | 216 | 8.0 | 19.3 | 0.00 | 0.18 | 0.08 | 78 | 1012.2 |
| 20260903132817 | 18 | 237 | 11.3 | 20.9 | 0.00 | 0.18 | 0.08 | 77 | 1012.4 |
| 20260903132317 | 18 | 251 | 8.0 | 22.5 | 0.00 | 0.18 | 0.08 | 78 | 1012.2 |
| 20260903131817 | 18 | 247 | 9.7 | 16.1 | 0.00 | 0.18 | 0.08 | 78 | 1012.2 |
| 20260903130817 | 18 | 249 | 8.0 | 19.3 | 0.00 | 0.18 | 0.08 | 77 | 1012.1 |
| 20260903130317 | 18 | 249 | 11.3 | 19.3 | 0.00 | 0.18 | 0.08 | 77 | 1012.2 |
| 20260903125817 | 18 | 249 | 8.0 | 19.3 | 0.00 | 0.18 | 0.08 | 77 | 1012.3 |
| 20260903124817 | 18 | 226 | 6.4 | 19.3 | 0.00 | 0.18 | 0.08 | 77 | 1012.3 |
| 20260903124316 | 18 | 228 | 8.0 | 19.3 | 0.00 | 0.20 | 0.08 | 78 | 1012.4 |
| 20260903123816 | 18 | 237 | 8.0 | 20.9 | 0.00 | 0.20 | 0.08 | 78 | 1012.4 |
| 20260903123316 | 18 | 258 | 9.7 | 20.9 | 0.00 | 0.20 | 0.08 | 77 | 1012.6 |
| 20260903122817 | 18 | 224 | 12.9 | 25.7 | 0.00 | 0.20 | 0.08 | 77 | 1012.7 |
| 20260903121316 | 18 | 240 | 9.7 | 19.3 | 0.00 | 0.20 | 0.08 | 78 | 1012.7 |
| 20260903120816 | 18 | 238 | 9.7 | 19.3 | 0.00 | 0.20 | 0.08 | 77 | 1012.8 |
| 20260903120317 | 18 | 251 | 8.0 | 16.1 | 0.00 | 0.20 | 0.08 | 78 | 1012.8 |
| 20260903115816 | 18 | 235 | 8.0 | 19.3 | 0.00 | 0.20 | 0.08 | 78 | 1012.6 |
| 20260903115317 | 17 | 226 | 9.7 | 19.3 | 0.00 | 0.20 | 0.08 | 78 | 1012.7 |
| 20260903114816 | 17 | 237 | 8.0 | 19.3 | 0.00 | 0.20 | 0.08 | 79 | 1012.7 |
| 20260903114316 | 17 | 238 | 9.7 | 20.9 | 0.00 | 0.20 | 0.08 | 78 | 1012.6 |
| 20260903113317 | 17 | 237 | 9.7 | 19.3 | 0.00 | 0.23 | 0.08 | 78 | 1012.7 |
| 20260903112317 | 17 | 259 | 8.0 | 20.9 | 0.00 | 0.25 | 0.08 | 77 | 1012.6 |
| 20260903111816 | 17 | 248 | 6.4 | 20.9 | 0.00 | 0.25 | 0.08 | 78 | 1012.6 |
| 20260903110817 | 17 | 249 | 4.8 | 12.9 | 0.00 | 0.25 | 0.08 | 79 | 1012.5 |
| 20260903110316 | 17 | 251 | 8.0 | 12.9 | 0.00 | 0.25 | 0.08 | 79 | 1012.4 |
| 20260903105816 | 17 | 256 | 9.7 | 16.1 | 0.00 | 0.25 | 0.08 | 77 | 1012.4 |
| 20260903105316 | 17 | 248 | 8.0 | 14.5 | 0.00 | 0.25 | 0.08 | 77 | 1012.3 |
| 20260903104817 | 17 | 243 | 9.7 | 22.5 | 0.00 | 0.28 | 0.08 | 78 | 1012.4 |
| 20260903103817 | 17 | 257 | 8.0 | 16.1 | 0.00 | 0.28 | 0.08 | 80 | 1012.5 |
| 20260903103316 | 17 | 239 | 8.0 | 22.5 | 0.00 | 0.28 | 0.08 | 80 | 1012.5 |
| 20260903102817 | 17 | 253 | 9.7 | 16.1 | 0.00 | 0.28 | 0.08 | 80 | 1012.5 |
| 20260903102316 | 17 | 250 | 9.7 | 19.3 | 0.00 | 0.28 | 0.08 | 81 | 1012.3 |
| 20260903101816 | 17 | 226 | 9.7 | 19.3 | 0.00 | 0.28 | 0.08 | 83 | 1012.2 |
| 20260903101317 | 16 | 258 | 6.4 | 11.3 | 0.00 | 0.28 | 0.08 | 85 | 1012.2 |
| 20260903100816 | 16 | 246 | 8.0 | 19.3 | 0.00 | 0.28 | 0.08 | 85 | 1012.3 |
| 20260903100316 | 16 | 251 | 8.0 | 19.3 | 0.00 | 0.28 | 0.08 | 86 | 1012.3 |
| 20260903095816 | 16 | 252 | 9.7 | 16.1 | 0.00 | 0.28 | 0.08 | 86 | 1012.1 |
| 20260903095316 | 16 | 235 | 6.4 | 20.9 | 0.00 | 0.28 | 0.08 | 87 | 1012.2 |
| 20260903094817 | 16 | 250 | 11.3 | 20.9 | 0.00 | 0.28 | 0.08 | 87 | 1012.2 |
| 20260903094316 | 16 | 243 | 8.0 | 19.3 | 0.00 | 0.28 | 0.08 | 87 | 1012.2 |
| 20260903093816 | 16 | 246 | 8.0 | 12.9 | 0.00 | 0.28 | 0.08 | 88 | 1012.1 |
| 20260903093317 | 16 | 244 | 8.0 | 12.9 | 0.00 | 0.28 | 0.08 | 88 | 1012.2 |
| 20260903092816 | 16 | 237 | 8.0 | 16.1 | 0.00 | 0.28 | 0.08 | 89 | 1012.0 |
| 20260903092316 | 16 | 240 | 8.0 | 19.3 | 0.00 | 0.28 | 0.08 | 88 | 1012.0 |
| 20260903091316 | 16 | 249 | 8.0 | 20.9 | 0.00 | 0.28 | 0.08 | 89 | 1012.1 |
| 20260903090316 | 16 | 241 | 11.3 | 32.2 | 0.00 | 0.28 | 0.08 | 89 | 1011.8 |
| 20260903085316 | 15 | 238 | 6.4 | 24.1 | 0.00 | 0.28 | 0.08 | 91 | 1011.5 |
| 20260903084817 | 15 | 250 | 9.7 | 19.3 | 0.03 | 0.28 | 0.08 | 91 | 1011.5 |
| 20260903084316 | 15 | 254 | 8.0 | 19.3 | 0.03 | 0.28 | 0.08 | 91 | 1011.5 |
| 20260903083816 | 15 | 248 | 12.9 | 24.1 | 0.03 | 0.28 | 0.08 | 91 | 1011.4 |
| 20260903083316 | 15 | 249 | 11.3 | 19.3 | 0.03 | 0.28 | 0.08 | 91 | 1011.4 |
| 20260903082816 | 15 | 238 | 11.3 | 24.1 | 0.03 | 0.28 | 0.08 | 91 | 1011.2 |
| 20260903082317 | 15 | 219 | 9.7 | 19.3 | 0.03 | 0.28 | 0.08 | 91 | 1011.2 |
| 20260903081816 | 15 | 237 | 11.3 | 19.3 | 0.03 | 0.28 | 0.08 | 91 | 1011.2 |
| 20260903081316 | 15 | 240 | 11.3 | 22.5 | 0.03 | 0.28 | 0.08 | 92 | 1011.3 |
| 20260903080817 | 15 | 236 | 8.0 | 22.5 | 0.03 | 0.28 | 0.08 | 92 | 1011.2 |
| 20260903080316 | 15 | 239 | 8.0 | 20.9 | 0.05 | 0.28 | 0.08 | 92 | 1011.2 |
| 20260903075817 | 15 | 252 | 6.4 | 20.9 | 0.05 | 0.28 | 0.08 | 92 | 1011.2 |
| 20260903075316 | 15 | 238 | 9.7 | 20.9 | 0.05 | 0.28 | 0.08 | 92 | 1011.3 |
| 20260903074816 | 15 | 236 | 8.0 | 19.3 | 0.05 | 0.25 | 0.05 | 92 | 1011.3 |
| 20260903074316 | 15 | 243 | 11.3 | 20.9 | 0.05 | 0.25 | 0.05 | 91 | 1011.1 |
| 20260903073316 | 15 | 242 | 9.7 | 19.3 | 0.05 | 0.25 | 0.05 | 91 | 1011.1 |
| 20260903072317 | 15 | 242 | 11.3 | 22.5 | 0.05 | 0.25 | 0.05 | 92 | 1011.2 |
| 20260903071816 | 15 | 250 | 9.7 | 16.1 | 0.05 | 0.25 | 0.05 | 92 | 1010.9 |
| 20260903071316 | 15 | 233 | 8.0 | 19.3 | 0.05 | 0.25 | 0.05 | 92 | 1010.8 |
| 20260903070816 | 15 | 241 | 8.0 | 16.1 | 0.05 | 0.25 | 0.05 | 92 | 1010.6 |
| 20260903070316 | 15 | 259 | 8.0 | 19.3 | 0.03 | 0.23 | 0.05 | 91 | 1010.5 |
| 20260903065816 | 15 | 235 | 9.7 | 19.3 | 0.03 | 0.23 | 0.05 | 91 | 1010.6 |
| 20260903065316 | 15 | 237 | 11.3 | 24.1 | 0.03 | 0.23 | 0.05 | 91 | 1010.5 |
| 20260903064817 | 15 | 253 | 11.3 | 22.5 | 0.00 | 0.23 | 0.03 | 90 | 1010.6 |
| 20260903064316 | 15 | 246 | 16.1 | 22.5 | 0.00 | 0.23 | 0.03 | 91 | 1010.5 |
| 20260903063816 | 15 | 249 | 9.7 | 24.1 | 0.00 | 0.23 | 0.03 | 91 | 1010.5 |
| 20260903063316 | 15 | 246 | 11.3 | 24.1 | 0.00 | 0.23 | 0.03 | 91 | 1010.2 |
| 20260903062817 | 15 | 236 | 9.7 | 19.3 | 0.00 | 0.23 | 0.03 | 92 | 1010.2 |
| 20260903062316 | 15 | 236 | 8.0 | 19.3 | 0.00 | 0.23 | 0.03 | 92 | 1010.3 |
| 20260903061816 | 15 | 241 | 11.3 | 19.3 | 0.00 | 0.23 | 0.03 | 92 | 1010.2 |
| 20260903060817 | 15 | 246 | 11.3 | 27.4 | 0.00 | 0.23 | 0.03 | 92 | 1010.2 |
| 20260903060316 | 15 | 253 | 9.7 | 24.1 | 0.00 | 0.23 | 0.03 | 91 | 1010.1 |
| 20260903055817 | 16 | 252 | 11.3 | 19.3 | 0.00 | 0.23 | 0.03 | 91 | 1010.1 |
| 20260903054816 | 16 | 244 | 11.3 | 20.9 | 0.00 | 0.23 | 0.03 | 91 | 1010.0 |
| 20260903054315 | 16 | 234 | 9.7 | 24.1 | 0.00 | 0.23 | 0.03 | 91 | 1010.0 |
| 20260903053817 | 16 | 240 | 9.7 | 19.3 | 0.00 | 0.23 | 0.03 | 90 | 1009.9 |
| 20260903053315 | 16 | 247 | 9.7 | 22.5 | 0.00 | 0.23 | 0.03 | 90 | 1010.0 |
| 20260903052816 | 16 | 248 | 11.3 | 19.3 | 0.00 | 0.23 | 0.03 | 90 | 1010.1 |
| 20260903051816 | 16 | 238 | 9.7 | 19.3 | 0.00 | 0.23 | 0.03 | 90 | 1009.8 |
| 20260903051316 | 16 | 249 | 12.9 | 20.9 | 0.00 | 0.23 | 0.03 | 90 | 1009.9 |
| 20260903050816 | 16 | 237 | 8.0 | 16.1 | 0.00 | 0.23 | 0.03 | 90 | 1009.9 |
| 20260903050317 | 16 | 242 | 9.7 | 22.5 | 0.00 | 0.23 | 0.03 | 90 | 1009.9 |
| 20260903045816 | 16 | 238 | 8.0 | 16.1 | 0.00 | 0.23 | 0.03 | 90 | 1010.0 |
| 20260903045315 | 16 | 234 | 8.0 | 19.3 | 0.00 | 0.23 | 0.03 | 90 | 1009.9 |
| 20260903044817 | 16 | 251 | 9.7 | 16.1 | 0.00 | 0.23 | 0.03 | 90 | 1010.0 |
| 20260903044316 | 16 | 243 | 9.7 | 16.1 | 0.00 | 0.23 | 0.03 | 90 | 1010.0 |
| 20260903043816 | 16 | 254 | 8.0 | 16.1 | 0.00 | 0.23 | 0.03 | 91 | 1009.9 |
| 20260903043316 | 16 | 248 | 9.7 | 20.9 | 0.00 | 0.23 | 0.03 | 90 | 1009.9 |
| 20260903042816 | 16 | 242 | 8.0 | 19.3 | 0.00 | 0.23 | 0.03 | 90 | 1009.9 |
| 20260903042317 | 16 | 265 | 9.7 | 22.5 | 0.00 | 0.23 | 0.03 | 90 | 1009.8 |
| 20260903041316 | 16 | 262 | 9.7 | 19.3 | 0.00 | 0.23 | 0.03 | 90 | 1009.7 |
| 20260903040816 | 16 | 258 | 11.3 | 19.3 | 0.00 | 0.23 | 0.03 | 90 | 1009.9 |
| 20260903040317 | 16 | 233 | 8.0 | 14.5 | 0.00 | 0.23 | 0.03 | 91 | 1009.9 |
| 20260903034817 | 16 | 238 | 8.0 | 12.9 | 0.00 | 0.23 | 0.03 | 92 | 1009.8 |
| 20260903033317 | 16 | 242 | 8.0 | 22.5 | 0.00 | 0.23 | 0.03 | 92 | 1009.8 |
| 20260903032816 | 16 | 250 | 9.7 | 19.3 | 0.00 | 0.23 | 0.03 | 92 | 1009.7 |
| 20260903032316 | 16 | 249 | 8.0 | 16.1 | 0.00 | 0.23 | 0.03 | 92 | 1009.8 |
| 20260903031816 | 16 | 249 | 9.7 | 16.1 | 0.00 | 0.23 | 0.03 | 92 | 1009.6 |
| 20260903031316 | 16 | 248 | 9.7 | 20.9 | 0.00 | 0.23 | 0.03 | 92 | 1009.5 |
| 20260903030816 | 16 | 234 | 11.3 | 22.5 | 0.00 | 0.23 | 0.03 | 92 | 1009.7 |
| 20260903030316 | 17 | 245 | 11.3 | 20.9 | 0.00 | 0.23 | 0.03 | 92 | 1009.7 |
| 20260903025816 | 17 | 257 | 11.3 | 24.1 | 0.00 | 0.23 | 0.03 | 92 | 1009.6 |
| 20260903024316 | 17 | 239 | 9.7 | 19.3 | 0.00 | 0.23 | 0.03 | 92 | 1009.7 |
| 20260903023816 | 17 | 256 | 12.9 | 20.9 | 0.00 | 0.23 | 0.03 | 91 | 1009.6 |
| 20260903023316 | 17 | 249 | 11.3 | 22.5 | 0.00 | 0.23 | 0.03 | 91 | 1009.7 |
| 20260903022816 | 17 | 239 | 9.7 | 22.5 | 0.00 | 0.23 | 0.03 | 91 | 1009.7 |
| 20260903022316 | 17 | 235 | 8.0 | 16.1 | 0.00 | 0.23 | 0.03 | 92 | 1009.6 |
| 20260903020816 | 17 | 226 | 11.3 | 24.1 | 0.00 | 0.23 | 0.03 | 91 | 1009.8 |
| 20260903020316 | 17 | 241 | 11.3 | 19.3 | 0.00 | 0.23 | 0.03 | 91 | 1010.0 |
| 20260903015316 | 17 | 251 | 12.9 | 25.7 | 0.00 | 0.23 | 0.03 | 91 | 1010.0 |
| 20260903014816 | 17 | 240 | 14.5 | 22.5 | 0.00 | 0.23 | 0.03 | 90 | 1010.0 |
| 20260903014316 | 17 | 245 | 16.1 | 24.1 | 0.00 | 0.23 | 0.03 | 90 | 1009.9 |
| 20260903013816 | 17 | 237 | 14.5 | 29.0 | 0.00 | 0.23 | 0.03 | 90 | 1009.8 |
| 20260903013317 | 17 | 244 | 9.7 | 19.3 | 0.00 | 0.23 | 0.03 | 90 | 1009.8 |
| 20260903012816 | 17 | 245 | 11.3 | 22.5 | 0.00 | 0.23 | 0.03 | 91 | 1009.8 |
| 20260903012316 | 17 | 242 | 9.7 | 19.3 | 0.00 | 0.23 | 0.03 | 91 | 1009.7 |
| 20260903011816 | 17 | 250 | 11.3 | 20.9 | 0.03 | 0.23 | 0.03 | 91 | 1009.7 |
| 20260903011316 | 17 | 245 | 12.9 | 24.1 | 0.03 | 0.23 | 0.03 | 92 | 1009.7 |
| 20260903010815 | 17 | 224 | 11.3 | 25.7 | 0.03 | 0.23 | 0.03 | 92 | 1009.7 |
| 20260903010316 | 17 | 231 | 8.0 | 19.3 | 0.03 | 0.23 | 0.03 | 92 | 1009.4 |
| 20260903005816 | 17 | 220 | 8.0 | 20.9 | 0.03 | 0.23 | 0.03 | 92 | 1009.5 |
| 20260903005316 | 17 | 253 | 9.7 | 20.9 | 0.03 | 0.23 | 0.03 | 92 | 1009.5 |
| 20260903003816 | 17 | 240 | 9.7 | 19.3 | 0.03 | 0.23 | 0.03 | 92 | 1009.9 |
| 20260903003316 | 17 | 228 | 9.7 | 19.3 | 0.03 | 0.23 | 0.03 | 92 | 1009.7 |
| 20260903002817 | 17 | 216 | 12.9 | 25.7 | 0.03 | 0.23 | 0.03 | 92 | 1009.7 |
| 20260903002316 | 17 | 234 | 9.7 | 22.5 | 0.03 | 0.23 | 0.03 | 92 | 1009.7 |
| 20260903001816 | 17 | 229 | 9.7 | 16.1 | 0.00 | 0.20 | 0.00 | 92 | 1009.9 |
| 20260903001315 | 17 | 232 | 8.0 | 22.5 | 0.00 | 0.20 | 0.00 | 92 | 1009.9 |
| 20260903000816 | 17 | 216 | 9.7 | 19.3 | 0.00 | 0.20 | 0.00 | 92 | 1010.0 |
| 20260903000317 | 17 | 219 | 6.4 | 11.3 | 0.00 | 0.20 | 0.00 | 92 | 1010.1 |
| 20260902235816 | 17 | 221 | 8.0 | 19.3 | 0.00 | 0.20 | 0.00 | 92 | 1010.1 |
| 20260902235315 | 17 | 239 | 6.4 | 12.9 | 0.00 | 0.20 | 0.00 | 92 | 1010.1 |
| 20260902234816 | 17 | 228 | 8.0 | 16.1 | 0.00 | 0.20 | 0.00 | 92 | 1010.1 |
| 20260902234315 | 17 | 238 | 9.7 | 16.1 | 0.00 | 0.20 | 0.00 | 92 | 1010.0 |
| 20260902233816 | 17 | 209 | 8.0 | 19.3 | 0.00 | 0.20 | 0.00 | 92 | 1010.0 |
| 20260902232815 | 17 | 229 | 6.4 | 12.9 | 0.00 | 0.20 | 0.00 | 93 | 1010.3 |
| 20260902232316 | 17 | 241 | 4.8 | 11.3 | 0.00 | 0.20 | 0.00 | 93 | 1010.2 |
| 20260902231816 | 17 | 219 | 6.4 | 11.3 | 0.03 | 0.20 | 0.00 | 93 | 1010.2 |
| 20260902231315 | 17 | 225 | 4.8 | 14.5 | 0.05 | 0.20 | 0.00 | 93 | 1010.3 |
| 20260902230856 | 17 | 216 | 8.0 | 14.5 | 0.05 | 0.20 | 0.00 | 93 | 1010.2 |
| 20260902230316 | 17 | 225 | 8.0 | 12.9 | 0.05 | 0.20 | 0.00 | 93 | 1010.2 |
| 20260902225816 | 17 | 226 | 8.0 | 14.5 | 0.05 | 0.20 | 0.20 | 93 | 1010.2 |
| 20260902225316 | 17 | 212 | 9.7 | 22.5 | 0.05 | 0.20 | 0.20 | 93 | 1010.4 |
| 20260902224816 | 17 | 213 | 9.7 | 22.5 | 0.05 | 0.20 | 0.20 | 93 | 1010.3 |
| 20260902224316 | 17 | 203 | 11.3 | 19.3 | 0.05 | 0.20 | 0.20 | 93 | 1010.2 |
| 20260902223315 | 17 | 207 | 8.0 | 16.1 | 0.05 | 0.20 | 0.20 | 93 | 1010.2 |
| 20260902221816 | 17 | 206 | 8.0 | 12.9 | 0.05 | 0.20 | 0.20 | 92 | 1010.5 |
| 20260902221317 | 17 | 207 | 8.0 | 14.5 | 0.00 | 0.15 | 0.15 | 92 | 1010.4 |
| 20260902220815 | 17 | 214 | 8.0 | 16.1 | 0.00 | 0.15 | 0.15 | 92 | 1010.4 |
| 20260902220316 | 17 | 236 | 6.4 | 11.3 | 0.00 | 0.15 | 0.15 | 92 | 1010.5 |
| 20260902215816 | 17 | 216 | 6.4 | 11.3 | 0.00 | 0.15 | 0.15 | 92 | 1010.3 |
| 20260902215316 | 17 | 217 | 4.8 | 11.3 | 0.00 | 0.15 | 0.15 | 92 | 1010.4 |
| 20260902214816 | 17 | 239 | 6.4 | 12.9 | 0.00 | 0.15 | 0.15 | 92 | 1010.5 |
| 20260902214316 | 17 | 241 | 6.4 | 11.3 | 0.00 | 0.15 | 0.15 | 92 | 1010.6 |
| 20260902213816 | 17 | 228 | 8.0 | 14.5 | 0.00 | 0.15 | 0.15 | 91 | 1010.7 |
| 20260902213315 | 17 | 227 | 8.0 | 19.3 | 0.00 | 0.15 | 0.15 | 91 | 1010.7 |
| 20260902212816 | 17 | 215 | 6.4 | 14.5 | 0.00 | 0.15 | 0.15 | 91 | 1010.6 |
| 20260902212316 | 17 | 245 | 9.7 | 19.3 | 0.00 | 0.15 | 0.15 | 91 | 1010.5 |
| 20260902211815 | 17 | 222 | 9.7 | 19.3 | 0.00 | 0.15 | 0.15 | 91 | 1010.5 |
| 20260902211316 | 17 | 219 | 8.0 | 14.5 | 0.00 | 0.15 | 0.15 | 91 | 1010.5 |
| 20260902210316 | 17 | 219 | 6.4 | 12.9 | 0.00 | 0.15 | 0.15 | 91 | 1010.5 |
| 20260902205815 | 17 | 227 | 6.4 | 19.3 | 0.00 | 0.15 | 0.15 | 91 | 1010.5 |
| 20260902205315 | 17 | 245 | 6.4 | 14.5 | 0.00 | 0.15 | 0.15 | 91 | 1010.4 |
| 20260902204815 | 17 | 244 | 8.0 | 14.5 | 0.00 | 0.15 | 0.15 | 92 | 1010.4 |
| 20260902203816 | 17 | 219 | 6.4 | 16.1 | 0.00 | 0.15 | 0.15 | 92 | 1010.3 |
| 20260902203316 | 17 | 243 | 6.4 | 12.9 | 0.00 | 0.15 | 0.15 | 92 | 1010.4 |
| 20260902202816 | 17 | 214 | 4.8 | 11.3 | 0.00 | 0.15 | 0.15 | 92 | 1010.5 |
| 20260902202315 | 17 | 236 | 4.8 | 9.7 | 0.00 | 0.15 | 0.15 | 92 | 1010.4 |
| 20260902201816 | 17 | 248 | 4.8 | 12.9 | 0.00 | 0.15 | 0.15 | 92 | 1010.3 |
| 20260902201317 | 17 | 221 | 8.0 | 16.1 | 0.00 | 0.15 | 0.15 | 92 | 1010.4 |
| 20260902200815 | 17 | 238 | 6.4 | 11.3 | 0.00 | 0.15 | 0.15 | 92 | 1010.4 |
| 20260902195816 | 17 | 220 | 4.8 | 11.3 | 0.00 | 0.15 | 0.15 | 92 | 1010.4 |
| 20260902195315 | 17 | 241 | 4.8 | 12.9 | 0.00 | 0.15 | 0.15 | 93 | 1010.4 |
| 20260902194816 | 17 | 258 | 4.8 | 11.3 | 0.00 | 0.15 | 0.15 | 93 | 1010.3 |